sat.trackr.live / text

‹ back to catalog

STARLINK-11379 [DTC]

NORAD 62089 · 2024-220B

PAYLOAD ACTIVE UNKNOWN

§ Identity

Operator
Country
US
Launch date
2024-11-25
Launch site
AFETR
Launch vehicle
Mass (kg)
RCS (m²)

Purposes: comms

External: N2YO · Heavens-Above · Gunter

§ Orbital elements

Epoch: 2026-09-20T09:44:28.781088Z

Period
91.67 min
Inclination
42.9998°
Eccentricity
0.0001374
Mean motion
15.70832745 rev/d
Perigee alt
355.6 km
Apogee alt
357.4 km
Semi-major
6,734.7 km
B*
8.7771e-4
RAAN
309.6875°
Arg perigee
266.1611°
Mean anomaly
93.9099°
Rev number
10,557

§ Raw data

STARLINK-11379 [DTC]1 62089U 24220B   26263.40588867  .00113690  00000+0  87771-3 0  99922 62089  42.9998 309.6875 0001374 266.1611  93.9099 15.70832745105573

JSON: /api/v1/satellites/62089 · /tle

For live sub-satellite position, see the globe view (requires WebGL).

§ Visibility from observer

Set your observer location to see the next 7 days of passes ≥ 10°. The values pass through the URL so the page stays shareable.

No JS? Fill the form by hand. The geolocation button needs JavaScript.